647  
ASUS43 KARX 200210  
RWRARX  
 
HOURLY WEATHER FOR THE UPPER MISSISSIPPI RIVER VALLEY  
NATIONAL WEATHER SERVICE LA CROSSE WI  
900 PM CDT FRI AUG 19 2022  
 
NOTE: "FAIR" INDICATES FEW OR NO CLOUDS BELOW 12,000 FEET WITH NO  
SIGNIFICANT WEATER AND/OR S TO VISIBILITY
.  
 
MNZ077-085>088-093>096-200300  
SOUTHEAST MINNESOTA  
 
CITY SKY/WX TMP DP RH WIND PRES REMARKS
 
ROCHESTER LGT RAIN 61 59 93 E7 29.85F  
WINONA LGT RAIN 63 63 100 CALM 29.85F  
AUSTIN CLOUDY 64 63 94 E6 29.84R  
ALBERT LEA CLOUDY 64 63 94 E7 29.82R  
DODGE CENTER N/A 61 61 100 E7 29.84R  
PRESTON TSTM 60 58 92 NE5 29.88R  
OWATONNA LGT RAIN 63 61 94 E10 29.83R  
FARIBAULT CLOUDY 63 61 94 E3 29.84R  

 
 
WIZ041-042-053>056-061-200300  
SOUTHWEST WISCONSIN  
 
CITY SKY/WX TMP DP RH WIND PRES REMARKS
 
LA CROSSE LGT RAIN 65 59 81 N5 29.83F  
SPARTA CLOUDY 63 63 99 CALM 29.86S  
VIROQUA CLOUDY 67 67 100 E6 29.85S  
WIS DELLS CLOUDY 69 62 79 SE6 29.88R  
PRAIRIE DU CHI MOCLDY 70 67 90 CALM 29.81S  
BOSCOBEL MOCLDY 70 69 97 CALM 29.83R  
LONE ROCK LGT RAIN 68 60 75 CALM 29.85R  
PLATTEVILLE FAIR 68 63 82 E8 29.86R  

 
 
WIZ017-030-034>036-043>045-200300  
CENTRAL WISCONSIN  
 
CITY SKY/WX TMP DP RH WIND PRES REMARKS
 
MEDFORD PTCLDY 61 61 100 NE3 29.91S  
WAUSAU MOCLDY 70 63 78 NE5 29.89S  
BLACK RVR FLS CLOUDY 68 64 85 E5 29.86R  
WIS RAPIDS MOCLDY 69 65 86 E6 29.88S  
MARSHFIELD MOCLDY 67 64 90 E8 29.88S  
MAUSTON MOCLDY 68 68 99 CALM 29.85S  
CAMP DOUGLAS HVY RAIN 64 63 94 NW10 29.85R  
WAUTOMA PTCLDY 70 65 84 E5 29.89R  

 
 
IAZ008>011-017>019-029-030-200300  
NORTHEAST IOWA  
 
CITY SKY/WX TMP DP RH WIND PRES REMARKS
 
WATERLOO CLOUDY 66 63 90 S3 29.82F  
DUBUQUE CLOUDY 71 68 90 S6 29.85R  
DECORAH CLOUDY 66 66 100 N3 29.83R  
MASON CITY CLOUDY 64 63 96 CALM 29.83R  
CHARLES CITY LGT RAIN 63 63 100 E9 29.84F  
OELWEIN MOCLDY 64 63 94 W5 29.85R  

 
 
WIND SPEEDS ARE IN MILES PER HOUR.  
 
ABBREVIATIONS USED IN THE REMARKS:  
VSB - VISIBILITY IN STATUTE MILES  
WCI - WIND CHILL INDEX  
HX - HEAT INDEX  
 
 
CLICK HERE TO GO TO PREVIOUS BULLETINS.

The Nexlab WI Page
The Nexlab IA Page
The Nexlab MN Page Main Text Page